CFG3LM EDDL-LGKR

Flight info

Callsign CFG3LM
Flight time 2h 10m
Altitude 35000
Route DODEN7Z DODEN Y853 BOMBI DCT DETEV DCT DINKU M867 XERUM DCT BAVAX DCT RADIZ DCT ALIVO DCT UNIPA DCT VAKSU DCT RODON DCT LIMJA N732 PITAS
Aircraft A21N/M-SBDE3FGHIJ1J4J7LORVWXYZ/SB2D1G1

Departure

Time 2026-05-07 15:04
Airport Düsseldorf Airport (EDDL)

Arrival

Time 2026-05-07 17:14
Airport Corfu Ioannis Kapodistrias International Airport (LGKR)
Time Latitude Longitude Altitude Speed Heading
2026-05-07 13:58 51.27999 6.76160 136 ft 0 kts 119°
2026-05-07 14:53 51.28001 6.76156 136 ft 3 kts 119°
2026-05-07 14:53 51.28010 6.76128 136 ft 3 kts 112°
2026-05-07 14:53 51.28012 6.76093 136 ft 2 kts 69°
2026-05-07 14:53 51.28007 6.76074 136 ft 3 kts 57°
2026-05-07 14:54 51.27995 6.76053 135 ft 3 kts 24°
2026-05-07 14:54 51.27977 6.76047 135 ft 3 kts 359°
2026-05-07 14:54 51.27964 6.76047 136 ft 0 kts 358°
2026-05-07 14:56 51.27976 6.76047 135 ft 4 kts 358°
2026-05-07 14:56 51.28016 6.76047 135 ft 8 kts
2026-05-07 14:57 51.28082 6.76044 135 ft 11 kts 339°
2026-05-07 14:57 51.28090 6.75938 135 ft 12 kts 233°
2026-05-07 14:57 51.28035 6.75822 135 ft 14 kts 233°
2026-05-07 14:57 51.27973 6.75692 135 ft 15 kts 233°
2026-05-07 14:58 51.27905 6.75550 133 ft 17 kts 233°
2026-05-07 14:58 51.27848 6.75429 132 ft 5 kts 233°
2026-05-07 14:58 51.27836 6.75387 131 ft 5 kts 266°
2026-05-07 14:58 51.27856 6.75339 130 ft 6 kts 326°
2026-05-07 14:59 51.27872 6.75325 128 ft 0 kts 332°
2026-05-07 15:02 51.27874 6.75324 130 ft 1 kts 332°
2026-05-07 15:02 51.27900 6.75301 129 ft 7 kts 332°
2026-05-07 15:02 51.27966 6.75268 127 ft 13 kts
2026-05-07 15:02 51.28016 6.75317 125 ft 0 kts 53°
2026-05-07 15:03 51.28024 6.75334 127 ft 13 kts 53°
2026-05-07 15:03 51.28236 6.75781 136 ft 87 kts 52°
2026-05-07 15:03 51.28748 6.76857 139 ft 153 kts 53°
2026-05-07 15:04 51.29392 6.78238 659 ft 153 kts 53°
2026-05-07 15:04 51.30030 6.79610 1305 ft 155 kts 50°
2026-05-07 15:04 51.30687 6.80986 1834 ft 163 kts 51°
2026-05-07 15:04 51.31417 6.82535 2175 ft 185 kts 51°
2026-05-07 15:05 51.32220 6.84235 2653 ft 199 kts 51°
2026-05-07 15:05 51.33096 6.86098 3054 ft 221 kts 51°
2026-05-07 15:05 51.34050 6.88194 3471 ft 244 kts 53°
2026-05-07 15:05 51.34963 6.90567 4110 ft 256 kts 66°
2026-05-07 15:06 51.35274 6.93402 4918 ft 264 kts 91°
2026-05-07 15:06 51.35022 6.96330 5762 ft 268 kts 99°
2026-05-07 15:06 51.34685 6.99286 6611 ft 271 kts 99°
2026-05-07 15:06 51.34357 7.02274 7387 ft 275 kts 99°
2026-05-07 15:07 51.34037 7.05337 8079 ft 283 kts 99°
2026-05-07 15:07 51.33712 7.08496 8718 ft 292 kts 99°
2026-05-07 15:07 51.33382 7.11721 9510 ft 294 kts 99°
2026-05-07 15:07 51.33028 7.14982 10203 ft 301 kts 103°
2026-05-07 15:08 51.32285 7.18172 10631 ft 315 kts 121°
2026-05-07 15:08 51.30877 7.20963 10925 ft 332 kts 135°
2026-05-07 15:08 51.29166 7.23608 11202 ft 350 kts 137°
2026-05-07 15:08 51.27362 7.26355 11540 ft 365 kts 137°
2026-05-07 15:09 51.25516 7.29207 12133 ft 372 kts 136°
2026-05-07 15:09 51.23662 7.32100 12858 ft 375 kts 136°
2026-05-07 15:09 51.21794 7.35030 13564 ft 378 kts 136°
2026-05-07 15:09 51.19931 7.37963 14211 ft 382 kts 136°
2026-05-07 15:10 51.18030 7.40953 14823 ft 385 kts 136°
2026-05-07 15:10 51.16125 7.43987 15436 ft 389 kts 135°
2026-05-07 15:10 51.14226 7.47093 16053 ft 392 kts 135°
2026-05-07 15:10 51.12310 7.50222 16667 ft 396 kts 135°
2026-05-07 15:11 51.10386 7.53365 17314 ft 398 kts 135°
2026-05-07 15:11 51.08447 7.56542 17941 ft 401 kts 135°
2026-05-07 15:11 51.06496 7.59733 18527 ft 404 kts 135°
2026-05-07 15:11 51.04529 7.62946 19054 ft 407 kts 135°
2026-05-07 15:12 51.02541 7.66186 19560 ft 410 kts 135°
2026-05-07 15:12 51.00564 7.69399 20056 ft 414 kts 135°
2026-05-07 15:12 50.98541 7.72679 20569 ft 417 kts 135°
2026-05-07 15:12 50.96504 7.75979 21055 ft 420 kts 135°
2026-05-07 15:13 50.94450 7.79304 21552 ft 423 kts 135°
2026-05-07 15:13 50.92384 7.82640 22036 ft 426 kts 135°
2026-05-07 15:13 50.90300 7.86002 22511 ft 429 kts 135°
2026-05-07 15:13 50.88205 7.89373 22972 ft 432 kts 135°
2026-05-07 15:14 50.86082 7.92786 23432 ft 435 kts 135°
2026-05-07 15:14 50.83955 7.96202 23834 ft 438 kts 135°
2026-05-07 15:14 50.81799 7.99660 24213 ft 440 kts 135°
2026-05-07 15:14 50.79640 8.03122 24600 ft 443 kts 135°
2026-05-07 15:15 50.77498 8.06551 24962 ft 446 kts 135°
2026-05-07 15:15 50.75278 8.10098 25329 ft 448 kts 135°
2026-05-07 15:15 50.73106 8.13567 25725 ft 450 kts 135°
2026-05-07 15:15 50.70896 8.17082 26107 ft 452 kts 135°
2026-05-07 15:16 50.68670 8.20625 26490 ft 455 kts 135°
2026-05-07 15:16 50.66435 8.24177 26868 ft 457 kts 135°
2026-05-07 15:16 50.64185 8.27747 27227 ft 459 kts 135°
2026-05-07 15:16 50.61930 8.31322 27582 ft 461 kts 135°
2026-05-07 15:17 50.59660 8.34911 27928 ft 464 kts 135°
2026-05-07 15:17 50.57380 8.38511 28265 ft 465 kts 135°
2026-05-07 15:17 50.55121 8.42070 28720 ft 464 kts 135°
2026-05-07 15:17 50.52840 8.45664 29202 ft 462 kts 135°
2026-05-07 15:18 50.50569 8.49233 29655 ft 461 kts 135°
2026-05-07 15:18 50.48307 8.52785 30074 ft 460 kts 135°
2026-05-07 15:18 50.46046 8.56335 30407 ft 459 kts 135°
2026-05-07 15:18 50.43780 8.59885 30713 ft 459 kts 135°
2026-05-07 15:19 50.41517 8.63422 31014 ft 459 kts 135°
2026-05-07 15:19 50.39255 8.66951 31310 ft 459 kts 135°
2026-05-07 15:19 50.37019 8.70436 31595 ft 458 kts 135°
2026-05-07 15:19 50.34761 8.73955 31878 ft 458 kts 135°
2026-05-07 15:20 50.32497 8.77478 32153 ft 458 kts 136°
2026-05-07 15:20 50.30224 8.81001 32404 ft 458 kts 136°
2026-05-07 15:20 50.27959 8.84510 32640 ft 459 kts 136°
2026-05-07 15:20 50.25687 8.88031 32883 ft 459 kts 136°
2026-05-07 15:21 50.23416 8.91542 33138 ft 459 kts 136°
2026-05-07 15:21 50.21142 8.95057 33389 ft 459 kts 136°
2026-05-07 15:21 50.18870 8.98561 33633 ft 459 kts 136°
2026-05-07 15:21 50.16591 9.02065 33875 ft 459 kts 136°
2026-05-07 15:22 50.14321 9.05552 34092 ft 459 kts 136°
2026-05-07 15:22 50.12071 9.09005 34265 ft 458 kts 136°
2026-05-07 15:22 50.09802 9.12485 34434 ft 458 kts 136°
2026-05-07 15:22 50.07522 9.15976 34605 ft 458 kts 136°
2026-05-07 15:23 50.05247 9.19446 34771 ft 458 kts 136°
2026-05-07 15:23 50.02971 9.22906 34908 ft 458 kts 136°
2026-05-07 15:23 50.00689 9.26386 35049 ft 459 kts 136°
2026-05-07 15:23 49.98402 9.29878 35102 ft 459 kts 136°
2026-05-07 15:24 49.93836 9.36824 35069 ft 459 kts 136°
2026-05-07 15:24 49.89301 9.43697 35062 ft 459 kts 136°
2026-05-07 15:25 49.84726 9.50607 35055 ft 459 kts 136°
2026-05-07 15:25 49.80138 9.57464 35056 ft 458 kts 138°
2026-05-07 15:26 49.75469 9.64208 35051 ft 459 kts 138°
2026-05-07 15:26 49.70801 9.70953 35054 ft 459 kts 138°
2026-05-07 15:27 49.66133 9.77698 35050 ft 459 kts 138°
2026-05-07 15:27 49.61464 9.84421 35053 ft 459 kts 138°
2026-05-07 15:28 49.56783 9.91148 35053 ft 459 kts 138°
2026-05-07 15:28 49.52137 9.97801 35046 ft 459 kts 139°
2026-05-07 15:29 49.47449 10.04497 35052 ft 459 kts 139°
2026-05-07 15:29 49.42759 10.11185 35052 ft 459 kts 139°
2026-05-07 15:30 49.38092 10.17820 35055 ft 459 kts 139°
2026-05-07 15:30 49.33393 10.24474 35062 ft 459 kts 139°
2026-05-07 15:31 49.28697 10.31116 35062 ft 459 kts 139°
2026-05-07 15:31 49.23947 10.37703 35056 ft 459 kts 143°
2026-05-07 15:32 49.18581 10.42947 35075 ft 457 kts 151°
2026-05-07 15:32 49.13101 10.47886 35080 ft 457 kts 151°
2026-05-07 15:33 49.07618 10.52850 35079 ft 457 kts 151°
2026-05-07 15:33 49.02146 10.57808 35069 ft 457 kts 152°
2026-05-07 15:34 48.96708 10.62726 35078 ft 457 kts 152°
2026-05-07 15:34 48.91224 10.67674 35069 ft 457 kts 152°
2026-05-07 15:35 48.85752 10.72598 35065 ft 457 kts 152°
2026-05-07 15:35 48.80455 10.77957 35044 ft 461 kts 139°
2026-05-07 15:36 48.76066 10.85117 35040 ft 464 kts 134°
2026-05-07 15:36 48.71795 10.92390 35031 ft 464 kts 134°
2026-05-07 15:37 48.67467 10.99645 35027 ft 463 kts 134°
2026-05-07 15:37 48.63137 11.06860 35032 ft 463 kts 134°
2026-05-07 15:38 48.59533 11.12855 35026 ft 463 kts 134°
2026-05-07 15:38 48.54486 11.21223 35029 ft 463 kts 135°
2026-05-07 15:39 48.50835 11.27234 35023 ft 463 kts 135°
2026-05-07 15:39 48.46511 11.34365 35031 ft 463 kts 135°
2026-05-07 15:40 48.42169 11.41524 35031 ft 463 kts 135°
2026-05-07 15:40 48.37811 11.48676 35025 ft 463 kts 135°
2026-05-07 15:41 48.33452 11.55794 35043 ft 463 kts 135°
2026-05-07 15:41 48.29084 11.62913 35035 ft 463 kts 135°
2026-05-07 15:42 48.24599 11.69817 35028 ft 461 kts 140°
2026-05-07 15:42 48.19860 11.76336 35028 ft 461 kts 140°
2026-05-07 15:43 48.15121 11.82836 35027 ft 461 kts 140°
2026-05-07 15:43 48.10417 11.89274 35030 ft 461 kts 140°
2026-05-07 15:44 48.05679 11.95744 35037 ft 461 kts 141°
2026-05-07 15:44 48.00938 12.02200 35014 ft 461 kts 141°
2026-05-07 15:45 47.96200 12.08678 35028 ft 462 kts 141°
2026-05-07 15:45 47.91446 12.15112 35028 ft 462 kts 141°
2026-05-07 15:46 47.84332 12.24726 35025 ft 462 kts 141°
2026-05-07 15:47 47.79575 12.31152 35024 ft 462 kts 141°
2026-05-07 15:47 47.74793 12.37552 35024 ft 463 kts 141°
2026-05-07 15:48 47.69997 12.43955 35021 ft 463 kts 141°
2026-05-07 15:48 47.65203 12.50361 35020 ft 463 kts 141°
2026-05-07 15:49 47.60258 12.56437 35026 ft 461 kts 147°
2026-05-07 15:49 47.55106 12.62078 35024 ft 460 kts 147°
2026-05-07 15:50 47.49962 12.67703 35018 ft 460 kts 147°
2026-05-07 15:50 47.44803 12.73326 35018 ft 460 kts 148°
2026-05-07 15:51 47.39647 12.78933 35016 ft 461 kts 147°
2026-05-07 15:51 47.34485 12.84540 35020 ft 461 kts 148°
2026-05-07 15:52 47.29356 12.90111 35029 ft 461 kts 148°
2026-05-07 15:52 47.24173 12.95711 35013 ft 461 kts 148°
2026-05-07 15:53 47.18995 13.01272 35015 ft 460 kts 148°
2026-05-07 15:53 47.13819 13.06828 35007 ft 460 kts 148°
2026-05-07 15:54 47.08650 13.12371 35006 ft 460 kts 148°
2026-05-07 15:54 47.03477 13.17910 34982 ft 461 kts 149°
2026-05-07 15:55 46.98279 13.23466 34978 ft 462 kts 149°
2026-05-07 15:55 46.93112 13.28971 34990 ft 462 kts 149°
2026-05-07 15:56 46.87906 13.34481 34983 ft 462 kts 149°
2026-05-07 15:56 46.82705 13.39980 34970 ft 461 kts 149°
2026-05-07 15:57 46.77503 13.45477 34942 ft 463 kts 149°
2026-05-07 15:57 46.72276 13.50983 34956 ft 463 kts 149°
2026-05-07 15:58 46.67066 13.56468 34952 ft 461 kts 149°
2026-05-07 15:58 46.61856 13.61944 34943 ft 461 kts 150°
2026-05-07 15:59 46.56642 13.67399 34944 ft 462 kts 150°
2026-05-07 15:59 46.51448 13.72835 34942 ft 463 kts 150°
2026-05-07 16:00 46.46213 13.78309 34945 ft 463 kts 150°
2026-05-07 16:00 46.40989 13.83737 34927 ft 460 kts 150°
2026-05-07 16:01 46.35774 13.89139 34947 ft 461 kts 150°
2026-05-07 16:01 46.30552 13.94537 34939 ft 461 kts 151°
2026-05-07 16:02 46.25330 13.99907 34948 ft 461 kts 151°
2026-05-07 16:02 46.20103 14.05301 34949 ft 461 kts 151°
2026-05-07 16:03 46.14894 14.10648 34944 ft 458 kts 152°
2026-05-07 16:03 46.09701 14.15968 34942 ft 457 kts 152°
2026-05-07 16:04 46.04501 14.21280 34946 ft 459 kts 152°
2026-05-07 16:04 45.99312 14.26566 34948 ft 459 kts 152°
2026-05-07 16:05 45.94087 14.31873 34953 ft 459 kts 152°
2026-05-07 16:05 45.88884 14.37147 34944 ft 456 kts 152°
2026-05-07 16:06 45.83693 14.42404 34969 ft 457 kts 152°
2026-05-07 16:06 45.78491 14.47664 34967 ft 457 kts 153°
2026-05-07 16:07 45.73293 14.52899 34969 ft 457 kts 153°
2026-05-07 16:07 45.68118 14.58099 34976 ft 457 kts 153°
2026-05-07 16:08 45.62923 14.63316 34953 ft 456 kts 153°
2026-05-07 16:08 45.57710 14.68527 34954 ft 457 kts 153°
2026-05-07 16:09 45.52503 14.73766 35002 ft 460 kts 150°
2026-05-07 16:09 45.47550 14.79640 35008 ft 464 kts 147°
2026-05-07 16:10 45.42659 14.85551 35004 ft 464 kts 147°
2026-05-07 16:10 45.37735 14.91469 34984 ft 463 kts 147°
2026-05-07 16:11 45.32816 14.97369 35006 ft 463 kts 147°
2026-05-07 16:11 45.27887 15.03262 34989 ft 462 kts 147°
2026-05-07 16:12 45.22961 15.09149 35001 ft 462 kts 147°
2026-05-07 16:12 45.18022 15.15009 34992 ft 462 kts 147°
2026-05-07 16:13 45.13090 15.20857 34975 ft 462 kts 147°
2026-05-07 16:13 45.08178 15.26640 34990 ft 462 kts 147°
2026-05-07 16:14 45.03244 15.32459 34991 ft 462 kts 147°
2026-05-07 16:14 44.98313 15.38301 35009 ft 462 kts 147°
2026-05-07 16:15 44.93382 15.44123 34991 ft 462 kts 147°
2026-05-07 16:15 44.88454 15.49925 34994 ft 461 kts 147°
2026-05-07 16:16 44.83496 15.55716 35007 ft 462 kts 147°
2026-05-07 16:16 44.78583 15.61466 35008 ft 462 kts 147°
2026-05-07 16:17 44.73632 15.67237 35022 ft 462 kts 147°
2026-05-07 16:17 44.68678 15.73009 34999 ft 462 kts 147°
2026-05-07 16:18 44.63701 15.78740 35023 ft 462 kts 147°
2026-05-07 16:18 44.58744 15.84485 35031 ft 463 kts 146°
2026-05-07 16:19 44.53783 15.90241 35038 ft 463 kts 147°
2026-05-07 16:19 44.48837 15.95915 35038 ft 462 kts 147°
2026-05-07 16:20 44.43861 16.01612 35022 ft 462 kts 147°
2026-05-07 16:20 44.38888 16.07319 35043 ft 463 kts 147°
2026-05-07 16:21 44.33905 16.13026 35047 ft 463 kts 147°
2026-05-07 16:21 44.28923 16.18719 35053 ft 463 kts 147°
2026-05-07 16:22 44.23938 16.24410 35046 ft 463 kts 147°
2026-05-07 16:22 44.18937 16.30094 35037 ft 464 kts 147°
2026-05-07 16:23 44.14771 16.34822 35055 ft 464 kts 147°
2026-05-07 16:23 44.08943 16.41414 35065 ft 464 kts 147°
2026-05-07 16:24 44.04772 16.46129 35075 ft 464 kts 147°
2026-05-07 16:24 43.99690 16.51634 35071 ft 463 kts 149°
2026-05-07 16:25 43.94556 16.57052 35074 ft 463 kts 149°
2026-05-07 16:25 43.89413 16.62467 35082 ft 463 kts 149°
2026-05-07 16:26 43.84274 16.67862 35082 ft 463 kts 149°
2026-05-07 16:26 43.79132 16.73267 35072 ft 463 kts 149°
2026-05-07 16:27 43.74013 16.78611 35074 ft 464 kts 149°
2026-05-07 16:27 43.68867 16.83996 35078 ft 463 kts 149°
2026-05-07 16:28 43.63718 16.89358 35078 ft 463 kts 149°
2026-05-07 16:28 43.58567 16.94701 35075 ft 463 kts 149°
2026-05-07 16:29 43.53408 17.00044 35077 ft 463 kts 149°
2026-05-07 16:29 43.48252 17.05377 35062 ft 463 kts 149°
2026-05-07 16:30 43.43090 17.10705 35070 ft 464 kts 149°
2026-05-07 16:30 43.37929 17.16034 35078 ft 464 kts 149°
2026-05-07 16:31 43.32795 17.21319 35063 ft 464 kts 149°
2026-05-07 16:31 43.27625 17.26613 35046 ft 464 kts 150°
2026-05-07 16:32 43.22443 17.31909 35062 ft 464 kts 150°
2026-05-07 16:32 43.17264 17.37192 35069 ft 464 kts 150°
2026-05-07 16:33 43.12079 17.42484 35059 ft 465 kts 150°
2026-05-07 16:33 43.06891 17.47755 35067 ft 464 kts 150°
2026-05-07 16:34 43.01703 17.53044 35060 ft 466 kts 150°
2026-05-07 16:34 42.96500 17.58342 35062 ft 466 kts 150°
2026-05-07 16:35 42.91321 17.63576 35069 ft 466 kts 150°
2026-05-07 16:35 42.86108 17.68819 35062 ft 466 kts 150°
2026-05-07 16:36 42.80880 17.74054 35049 ft 467 kts 150°
2026-05-07 16:36 42.75622 17.79328 35060 ft 470 kts 150°
2026-05-07 16:37 42.70354 17.84593 35067 ft 470 kts 150°
2026-05-07 16:37 42.65080 17.89858 35073 ft 470 kts 150°
2026-05-07 16:38 42.59809 17.95121 35054 ft 470 kts 150°
2026-05-07 16:38 42.54528 18.00365 35073 ft 473 kts 150°
2026-05-07 16:39 42.49208 18.05650 35077 ft 473 kts 150°
2026-05-07 16:39 42.43896 18.10922 35076 ft 474 kts 150°
2026-05-07 16:40 42.38586 18.16203 35075 ft 474 kts 150°
2026-05-07 16:40 42.33246 18.21465 35070 ft 475 kts 150°
2026-05-07 16:41 42.27907 18.26733 35064 ft 475 kts 150°
2026-05-07 16:41 42.22584 18.31946 35059 ft 475 kts 151°
2026-05-07 16:42 42.17230 18.37195 35052 ft 476 kts 151°
2026-05-07 16:42 42.11874 18.42449 35034 ft 477 kts 151°
2026-05-07 16:43 42.06441 18.47745 35031 ft 486 kts 152°
2026-05-07 16:43 42.00917 18.53181 35067 ft 497 kts 150°
2026-05-07 16:44 41.95431 18.58872 35063 ft 498 kts 150°
2026-05-07 16:44 41.89979 18.64546 35057 ft 499 kts 150°
2026-05-07 16:45 41.84462 18.70259 35043 ft 504 kts 151°
2026-05-07 16:45 41.78892 18.76019 35057 ft 505 kts 151°
2026-05-07 16:46 41.73317 18.81746 35056 ft 505 kts 151°
2026-05-07 16:46 41.67753 18.87509 35064 ft 505 kts 150°
2026-05-07 16:47 41.62197 18.93214 35044 ft 502 kts 152°
2026-05-07 16:47 41.56685 18.98851 35060 ft 500 kts 152°
2026-05-07 16:48 41.51163 19.04497 35069 ft 501 kts 152°
2026-05-07 16:48 41.45462 19.09917 35067 ft 495 kts 162°
2026-05-07 16:48 41.42390 19.11785 34773 ft 479 kts 170°
2026-05-07 16:49 41.39259 19.13306 34452 ft 479 kts 173°
2026-05-07 16:49 41.36101 19.14777 34204 ft 481 kts 172°
2026-05-07 16:49 41.32980 19.16259 33959 ft 483 kts 172°
2026-05-07 16:49 41.29813 19.17788 33687 ft 483 kts 171°
2026-05-07 16:50 41.26662 19.19336 33421 ft 483 kts 170°
2026-05-07 16:50 41.23509 19.20879 33156 ft 482 kts 170°
2026-05-07 16:50 41.20360 19.22397 32893 ft 481 kts 170°
2026-05-07 16:50 41.17216 19.23917 32626 ft 481 kts 169°
2026-05-07 16:51 41.14073 19.25443 32373 ft 480 kts 169°
2026-05-07 16:51 41.10936 19.26962 32123 ft 479 kts 169°
2026-05-07 16:51 41.07808 19.28481 31867 ft 479 kts 168°
2026-05-07 16:51 41.04679 19.29999 31616 ft 478 kts 168°
2026-05-07 16:52 41.01557 19.31504 31364 ft 477 kts 167°
2026-05-07 16:52 40.98439 19.33014 31115 ft 476 kts 167°
2026-05-07 16:52 40.95326 19.34514 30859 ft 476 kts 167°
2026-05-07 16:52 40.92202 19.36021 30618 ft 477 kts 166°
2026-05-07 16:53 40.89088 19.37532 30381 ft 476 kts 166°
2026-05-07 16:53 40.86022 19.39010 30148 ft 474 kts 166°
2026-05-07 16:53 40.82922 19.40492 29870 ft 472 kts 166°
2026-05-07 16:53 40.79841 19.41960 29593 ft 469 kts 166°
2026-05-07 16:54 40.76771 19.43433 29306 ft 467 kts 165°
2026-05-07 16:54 40.73721 19.44893 29028 ft 465 kts 165°
2026-05-07 16:54 40.70663 19.46353 28730 ft 467 kts 165°
2026-05-07 16:54 40.67614 19.47810 28472 ft 464 kts 165°
2026-05-07 16:55 40.64583 19.49259 28196 ft 462 kts 165°
2026-05-07 16:55 40.61604 19.50683 27934 ft 460 kts 165°
2026-05-07 16:55 40.58602 19.52112 27674 ft 457 kts 165°
2026-05-07 16:55 40.55617 19.53534 27417 ft 455 kts 165°
2026-05-07 16:56 40.52641 19.54950 27160 ft 453 kts 165°
2026-05-07 16:56 40.49678 19.56352 26896 ft 452 kts 165°
2026-05-07 16:56 40.43786 19.59141 26395 ft 448 kts 165°
2026-05-07 16:57 40.40855 19.60531 26153 ft 446 kts 165°
2026-05-07 16:57 40.37947 19.61912 25920 ft 444 kts 165°
2026-05-07 16:57 40.35044 19.63292 25670 ft 442 kts 164°
2026-05-07 16:57 40.32161 19.64652 25424 ft 440 kts 165°
2026-05-07 16:58 40.29287 19.66002 25190 ft 437 kts 164°
2026-05-07 16:58 40.26401 19.67117 24372 ft 432 kts 172°
2026-05-07 16:58 40.23419 19.67533 23243 ft 432 kts 185°
2026-05-07 16:58 40.20440 19.67259 22369 ft 427 kts 189°
2026-05-07 16:59 40.17534 19.66883 21625 ft 421 kts 189°
2026-05-07 16:59 40.14599 19.66496 20856 ft 416 kts 189°
2026-05-07 16:59 40.11765 19.66128 20183 ft 411 kts 189°
2026-05-07 16:59 40.08937 19.65764 19489 ft 407 kts 189°
2026-05-07 17:00 40.06136 19.65404 18873 ft 400 kts 189°
2026-05-07 17:00 40.03387 19.65050 18269 ft 394 kts 189°
2026-05-07 17:00 40.00673 19.64704 17570 ft 388 kts 189°
2026-05-07 17:00 39.98001 19.64364 16876 ft 383 kts 188°
2026-05-07 17:01 39.95366 19.64029 16244 ft 377 kts 188°
2026-05-07 17:01 39.92794 19.63699 15588 ft 375 kts 188°
2026-05-07 17:01 39.90203 19.63357 14943 ft 372 kts 188°
2026-05-07 17:01 39.87638 19.63006 14305 ft 370 kts 188°
2026-05-07 17:02 39.85090 19.62646 13655 ft 367 kts 188°
2026-05-07 17:02 39.82558 19.62282 12954 ft 365 kts 188°
2026-05-07 17:02 39.80043 19.61908 12265 ft 362 kts 188°
2026-05-07 17:02 39.77549 19.61524 11589 ft 359 kts 188°
2026-05-07 17:03 39.75077 19.61170 10949 ft 356 kts 184°
2026-05-07 17:03 39.72625 19.61536 10322 ft 354 kts 168°
2026-05-07 17:03 39.70306 19.62544 9804 ft 349 kts 161°
2026-05-07 17:03 39.68069 19.63701 9275 ft 342 kts 160°
2026-05-07 17:04 39.65892 19.64849 8767 ft 334 kts 160°
2026-05-07 17:04 39.63780 19.65956 8250 ft 319 kts 160°
2026-05-07 17:04 39.61778 19.66997 7841 ft 301 kts 160°
2026-05-07 17:04 39.59886 19.67971 7491 ft 285 kts 160°
2026-05-07 17:05 39.58077 19.68892 7261 ft 274 kts 160°
2026-05-07 17:05 39.56330 19.69773 7034 ft 264 kts 160°
2026-05-07 17:05 39.54630 19.70622 6821 ft 259 kts 160°
2026-05-07 17:05 39.52948 19.71454 6600 ft 258 kts 160°
2026-05-07 17:06 39.51296 19.72264 6391 ft 257 kts 160°
2026-05-07 17:06 39.49624 19.73079 6168 ft 256 kts 160°
2026-05-07 17:06 39.47954 19.73889 5946 ft 255 kts 160°
2026-05-07 17:06 39.46296 19.74686 5718 ft 254 kts 160°
2026-05-07 17:07 39.44672 19.75458 5510 ft 252 kts 160°
2026-05-07 17:07 39.43025 19.76238 5290 ft 251 kts 160°
2026-05-07 17:07 39.41454 19.77187 5062 ft 251 kts 144°
2026-05-07 17:07 39.40347 19.78897 4835 ft 248 kts 118°
2026-05-07 17:08 39.39989 19.81047 4589 ft 247 kts 91°
2026-05-07 17:08 39.40199 19.83226 4357 ft 241 kts 85°
2026-05-07 17:08 39.40473 19.85320 4125 ft 232 kts 84°
2026-05-07 17:08 39.40743 19.87318 3812 ft 226 kts 84°
2026-05-07 17:09 39.41026 19.89293 3542 ft 220 kts 84°
2026-05-07 17:09 39.41315 19.91196 3299 ft 211 kts 84°
2026-05-07 17:09 39.41584 19.92984 3157 ft 194 kts 84°
2026-05-07 17:09 39.41820 19.94650 2988 ft 184 kts 85°
2026-05-07 17:10 39.42129 19.96267 2947 ft 189 kts 70°
2026-05-07 17:10 39.43107 19.97441 2954 ft 203 kts 25°
2026-05-07 17:10 39.44517 19.97482 2976 ft 209 kts 342°
2026-05-07 17:10 39.45410 19.97007 3012 ft 209 kts 337°
2026-05-07 17:11 39.46761 19.96317 2924 ft 209 kts 341°
2026-05-07 17:11 39.48095 19.95726 2775 ft 200 kts 342°
2026-05-07 17:11 39.49409 19.95185 2634 ft 193 kts 343°
2026-05-07 17:11 39.50637 19.94705 2324 ft 179 kts 344°
2026-05-07 17:12 39.51813 19.94254 1904 ft 175 kts 344°
2026-05-07 17:12 39.52937 19.93675 1424 ft 172 kts 335°
2026-05-07 17:12 39.53979 19.93045 1040 ft 154 kts 334°
2026-05-07 17:12 39.54933 19.92516 786 ft 146 kts 342°
2026-05-07 17:13 39.55896 19.92213 649 ft 144 kts 352°
2026-05-07 17:13 39.56893 19.92014 569 ft 141 kts 355°
2026-05-07 17:13 39.57856 19.91800 360 ft 139 kts 352°
2026-05-07 17:13 39.58797 19.91579 146 ft 139 kts 351°
2026-05-07 17:14 39.59726 19.91329 28 ft 130 kts 353°
2026-05-07 17:14 39.60473 19.91141 24 ft 81 kts 349°
2026-05-07 17:14 39.60837 19.91046 25 ft 20 kts 349°
2026-05-07 17:14 39.60967 19.91013 24 ft 20 kts 349°
2026-05-07 17:15 39.61042 19.91061 25 ft 14 kts 53°
2026-05-07 17:15 39.61009 19.91135 24 ft 14 kts 169°
2026-05-07 17:15 39.60910 19.91162 26 ft 15 kts 168°
2026-05-07 17:15 39.60801 19.91192 25 ft 15 kts 168°
2026-05-07 17:16 39.60711 19.91215 24 ft 1 kts 164°
2026-05-07 17:16 39.60694 19.91224 24 ft 4 kts 141°
2026-05-07 17:16 39.60693 19.91267 24 ft 6 kts 78°
2026-05-07 17:16 39.60703 19.91331 24 ft 8 kts 78°
2026-05-07 17:17 39.60705 19.91344 24 ft 2 kts 79°
2026-05-07 17:17 39.60705 19.91349 24 ft 2 kts 79°
2026-05-07 17:17 39.60707 19.91360 24 ft 0 kts 79°